Find Starlink 4431

NORAD ID: 53486 Int'l Des: 2022-099 Owner: SPXS Country: US Constellation: starlink operational
LEOCIRCULARRETROGRADESSO

現在のビュー

3D地球を読み込み中...

About Starlink 4431

Starlink 4431 (NORAD 53486) is a starlink constellation satellite (v1.5) launched Aug 12, 2022 by SPXS of US. It operates in LEO, CIRCULAR, RETROGRADE, SSO orbit with a mass of 300.00 kg.

次回通過

Passes for default location (London). Set your location on the main map for personalized predictions.

高度履歴

Loading altitude history...

軌道要素

1 53486U 22099X 26264.14869477 -.00002574 00000-0 -69075-4 0 9995
2 53486 97.5002 31.9993 0001136 238.3333 121.7801 15.36947396226004
Epoch: Sep 21, 2026 • Age: 11 hours

現在のステータス

高度 460.9 km
遠地点 / 近地点 N/A
速度 7.64 km/s
衛星直下点 -12.11°S, 176.78°E
打ち上げ日 Aug 12, 2022
運用期間 4.1 years
タイプ internet

技術仕様

分類 Payload
質量 300.00 kg
乾燥質量 275.00 kg
長さ 0.20 m
スパン 9.00 m
形状 ? Box + pan
製造者 SPXS
バスタイプ Starlink
フェーズステータス In Orbit
所有者/国 SPXS/US

Most Searched